Location: Newark
(16.3678°N, 77.8722°E)
Time: 09:49:31
(UTC+00:00)

S-56A Canister/Altair - Pass Details

Date: 13 December 2019
Orbit: 634 x 2498 km, 38.9° (Epoch: 27 January)

Event Time Altitude Azimuth Distance (km) Brightness Sun altitude
Rises 02:12:16 0° 233° (SW) 4,573 11.3 13.1°
Reaches altitude 10° 02:14:54 10° 234° (SW) 3,811 10.9 13.7°
Maximum altitude 02:25:29 85° 322° (NW) 2,089 9.9 15.8°
Drops below altitude 10° 02:40:13 10° 51° (NE) 5,115 12.0 18.9°
Sets 02:44:23 0° 52° (NE) 6,171 12.4 19.7°
